FW4486 Weather Reports


time (UTC)temp
F
wind
direction
speed
knots
gust
knots
rain 1hr
in
rain 24hr
in
rain mn
in
humidity
%
barometer
mb
20260906112005 76 0.0 0.0 0.00 0.00 0.00 86 1014.5
20260906111504 76 0.0 0.0 0.00 0.00 0.00 86 1014.4
20260906111004 76 0.0 0.0 0.00 0.00 0.00 86 1014.4
20260906110503 76 0.0 0.9 0.00 0.00 0.00 87 1014.4
20260906110002 76 0.0 0.9 0.00 0.00 0.00 86 1014.3
20260906105502 76 0.0 0.9 0.00 0.00 0.00 86 1014.3
20260906105004 76 0.0 0.9 0.00 0.00 0.00 86 1014.3
20260906104621 76 0.0 0.0 0.00 0.00 0.00 86 1014.2
20260906104100 76 0.0 0.0 0.00 0.00 0.00 86 1014.1
20260906103600 76 0.0 0.0 0.00 0.00 0.00 86 1014.1
20260906103059 76 0.0 0.9 0.00 0.00 0.00 85 1014.1
20260906102558 76 0.0 0.9 0.00 0.00 0.00 85 1014.1
20260906102057 76 0.0 1.7 0.00 0.00 0.00 85 1014.0
20260906101557 76 0.0 1.7 0.00 0.00 0.00 85 1014.0
20260906101055 76 0.0 0.9 0.00 0.00 0.00 85 1014.0
20260906100555 76 0.0 3.5 0.00 0.00 0.00 85 1014.1
20260906100054 76 0.9 3.5 0.00 0.00 0.00 85 1014.2
20260906095553 76 0.0 1.7 0.00 0.00 0.00 85 1014.4
20260906095057 76 0.0 1.7 0.00 0.00 0.00 85 1014.4
20260906094636 76 0.0 1.7 0.00 0.00 0.00 86 1014.2
20260906094051 76 0.0 1.7 0.00 0.00 0.00 85 1014.1
20260906093551 76 0.0 3.5 0.00 0.00 0.00 85 1014.2
20260906093102 76 0.9 3.5 0.00 0.00 0.00 84 1014.0
20260906092553 76 0.0 2.6 0.00 0.00 0.00 84 1014.1
20260906092049 76 0.0 2.6 0.00 0.00 0.00 84 1014.1
20260906091548 76 0.0 2.6 0.00 0.00 0.00 85 1014.0
20260906091047 76 0.0 1.7 0.00 0.00 0.00 85 1014.0
20260906090546 76 0.0 1.7 0.00 0.00 0.00 84 1013.9
20260906090046 76 0.0 2.6 0.00 0.00 0.00 84 1014.0
20260906085544 76 0.0 2.6 0.00 0.00 0.00 84 1014.0
20260906085044 76 0.0 2.6 0.00 0.00 0.00 84 1013.8
20260906084544 76 0.9 3.5 0.00 0.00 0.00 83 1013.7
20260906084142 76 1.7 5.2 0.00 0.00 0.00 83 1013.8
20260906083544 76 2.6 5.2 0.00 0.00 0.00 83 1013.6
20260906083041 76 0.9 3.5 0.00 0.00 0.00 84 1013.5
20260906082540 76 0.9 3.5 0.00 0.00 0.00 84 1013.5
20260906082040 76 0.0 1.7 0.00 0.00 0.00 84 1013.4
20260906081548 76 0.0 1.7 0.00 0.00 0.00 84 1013.3
20260906081039 76 0.9 2.6 0.00 0.00 0.00 84 1013.2
20260906080538 76 0.0 2.6 0.00 0.00 0.00 84 1013.2
20260906080046 76 0.9 4.3 0.00 0.00 0.00 83 1013.3
20260906075536 76 0.9 4.3 0.00 0.00 0.00 83 1013.3
20260906075035 77 1.7 4.3 0.00 0.00 0.00 83 1013.2
20260906074534 77 0.9 5.2 0.00 0.00 0.00 83 1013.2
20260906074032 77 0.9 6.1 0.00 0.00 0.00 83 1013.3
20260906073531 77 2.6 6.1 0.00 0.00 0.00 82 1013.4
20260906073030 77 0.0 3.5 0.00 0.00 0.00 83 1013.4
20260906072529 77 0.0 0.9 0.00 0.00 0.00 82 1013.4
20260906072029 77 0.0 0.9 0.00 0.00 0.00 81 1013.4
20260906071526 78 0.0 0.9 0.00 0.00 0.00 81 1013.4
20260906071026 78 0.0 0.9 0.00 0.00 0.00 80 1013.4
20260906070531 78 0.0 0.9 0.00 0.00 0.00 80 1013.5
20260906070023 78 0.0 0.0 0.00 0.00 0.00 81 1013.5
20260906065522 78 0.0 0.0 0.00 0.00 0.00 80 1013.6
20260906065021 78 0.0 0.0 0.00 0.00 0.00 79 1013.5
20260906064520 79 0.0 0.9 0.00 0.00 0.00 79 1013.6
20260906064018 79 0.0 1.7 0.00 0.00 0.00 79 1013.7
20260906063517 79 0.0 2.6 0.00 0.00 0.00 78 1013.7
20260906063016 79 1.7 2.6 0.00 0.00 0.00 78 1013.7
20260906062520 79 0.9 2.6 0.00 0.00 0.00 78 1013.9
20260906062014 79 0.0 2.6 0.00 0.00 0.00 77 1014.0
20260906061516 79 0.0 1.7 0.00 0.00 0.00 77 1014.0
20260906061011 79 0.0 2.6 0.00 0.00 0.00 77 1014.1
20260906060509 80 0.0 2.6 0.00 0.00 0.00 77 1014.2
20260906060010 80 1.7 2.6 0.00 0.00 0.00 77 1014.2
20260906055508 80 0.0 0.9 0.00 0.00 0.00 78 1014.2
20260906055007 80 0.0 2.6 0.00 0.00 0.00 77 1014.2
20260906054504 80 0.0 2.6 0.00 0.00 0.00 76 1014.3
20260906054006 80 0.9 2.6 0.00 0.00 0.00 75 1014.4
20260906053504 80 0.0 2.6 0.00 0.00 0.00 76 1014.4
20260906053003 81 0.9 2.6 0.00 0.00 0.00 76 1014.5
20260906052502 81 0.0 1.7 0.00 0.00 0.00 75 1014.5
20260906052101 81 0.9 2.6 0.00 0.00 0.00 75 1014.4
20260906051559 81 0.0 2.6 0.00 0.00 0.00 74 1014.5
20260906051100 81 0.0 0.9 0.00 0.00 0.00 75 1014.6
20260906050556 81 0.0 3.5 0.00 0.00 0.00 74 1014.6
20260906050114 81 0.9 3.5 0.00 0.00 0.00 74 1014.6
20260906045556 81 0.0 0.9 0.00 0.00 0.00 75 1014.7
20260906045055 81 0.0 1.7 0.00 0.00 0.00 75 1014.6
20260906044556 82 0.0 1.7 0.00 0.00 0.00 74 1014.6
20260906044056 82 0.0 0.9 0.00 0.00 0.00 74 1014.5
20260906043554 82 0.0 0.0 0.00 0.00 0.00 74 1014.6
20260906043051 82 0.0 2.6 0.00 0.00 0.00 74 1014.6
20260906042549 82 0.0 5.2 0.00 0.00 0.00 74 1014.7
20260906042049 82 0.9 5.2 0.00 0.00 0.00 74 1014.8
20260906041549 82 0.0 3.5 0.00 0.00 0.00 76 1014.6
20260906041046 82 0.9 2.6 0.00 0.00 0.00 75 1014.8
20260906040547 82 0.0 0.9 0.00 0.00 0.00 78 1014.7
20260906040045 83 0.0 1.7 0.00 0.00 0.00 80 1014.8
20260906035546 83 0.0 1.7 0.00 0.00 0.00 82 1014.8
20260906035044 83 0.0 2.6 0.00 0.00 0.00 84 1015.0
20260906034548 83 0.9 2.6 0.00 0.00 0.00 84 1014.9
20260906034041 83 0.0 0.0 0.00 0.00 0.00 84 1014.8
20260906033540 83 0.0 0.0 0.00 0.00 0.00 84 1014.7
20260906033041 83 0.0 0.9 0.00 0.00 0.00 84 1014.6
20260906032540 83 0.0 0.9 0.00 0.00 0.00 84 1014.4
20260906032140 83 0.0 0.0 0.00 0.00 0.00 84 1014.3
20260906031547 83 0.0 2.6 0.00 0.00 0.00 83 1014.5
20260906031036 83 0.9 3.5 0.00 0.00 0.00 83 1014.5
20260906030536 83 0.9 3.5 0.00 0.00 0.00 83 1014.6
20260906030035 84 0.9 1.7 0.00 0.00 0.00 83 1014.7
20260906025535 84 0.0 1.7 0.00 0.00 0.00 83 1014.7
20260906025035 84 0.0 1.7 0.00 0.00 0.00 82 1014.7
20260906024534 84 0.9 1.7 0.00 0.00 0.00 82 1014.9
20260906024033 84 0.0 1.7 0.00 0.00 0.00 81 1014.8
20260906023533 84 0.0 1.7 0.00 0.00 0.00 81 1014.9
20260906023033 84 0.0 5.2 0.00 0.00 0.00 81 1015.0
20260906022532 85 0.9 5.2 0.00 0.00 0.00 81 1014.9
20260906022034 85 0.9 4.3 0.00 0.00 0.00 80 1014.9
20260906021530 85 1.7 4.3 0.00 0.00 0.00 80 1014.9
20260906021028 85 0.9 4.3 0.00 0.00 0.00 80 1015.0
20260906020529 85 1.7 7.0 0.00 0.00 0.00 80 1015.0
20260906020032 85 2.6 7.0 0.00 0.00 0.00 80 1015.0
20260906015527 85 1.7 4.3 0.00 0.00 0.00 79 1014.9
20260906015026 85 1.7 4.3 0.00 0.00 0.00 79 1014.9
20260906014530 85 2.6 4.3 0.00 0.00 0.00 79 1014.6
20260906014027 86 1.7 4.3 0.00 0.00 0.00 79 1014.4
20260906013524 85 1.7 4.3 0.00 0.00 0.00 79 1014.4
20260906013024 85 0.9 2.6 0.00 0.00 0.00 79 1014.2
20260906012522 86 0.9 2.6 0.00 0.00 0.00 78 1013.7
20260906012023 86 0.0 3.5 0.00 0.00 0.00 78 1013.7
20260906011522 86 0.0 5.2 0.00 0.00 0.00 77 1013.7
20260906011025 86 1.7 6.1 0.00 0.00 0.00 77 1013.7
20260906010520 86 1.7 6.1 0.00 0.00 0.00 77 1013.6
20260906010020 86 0.9 5.2 0.00 0.00 0.00 77 1013.4
20260906005520 86 0.9 5.2 0.00 0.00 0.00 77 1013.5
20260906005019 87 0.9 2.6 0.00 0.00 0.00 76 1013.5
20260906004519 87 0.0 1.7 0.00 0.00 0.00 76 1013.5
20260906004017 87 0.0 1.7 0.00 0.00 0.00 76 1013.4
20260906003517 87 0.0 2.6 0.00 0.00 0.00 75 1013.5
20260906003023 87 0.9 2.6 0.00 0.00 0.00 74 1013.3
20260906002516 88 0.9 2.6 0.00 0.00 0.00 73 1013.3
20260906002015 88 0.0 2.6 0.00 0.00 0.00 73 1013.3
20260906001516 89 0.9 2.6 0.00 0.00 0.00 72 1013.2
20260906001015 89 0.0 2.6 0.00 0.00 0.00 71 1013.3
20260906000513 89 0.9 2.6 0.00 0.00 0.00 70 1013.2
20260906000013 90 0.0 1.7 0.00 0.00 0.00 70 1013.2
20260905235512 90 0.0 0.9 0.00 0.00 0.00 69 1013.4
20260905235014 90 0.0 0.0 0.00 0.00 0.00 69 1013.5
20260905234512 91 0.0 0.9 0.00 0.00 0.00 68 1013.4
20260905234013 91 0.0 0.9 0.00 0.00 0.00 67 1013.5
20260905233511 91 0.0 1.7 0.00 0.00 0.00 67 1013.5
20260905233012 92 0.9 1.7 0.00 0.00 0.00 66 1013.5
20260905232513 92 0.0 1.7 0.00 0.00 0.00 66 1013.4
20260905232009 93 0.0 6.1 0.00 0.00 0.00 65 1013.4
20260905231507 93 0.9 6.1 0.00 0.00 0.00 64 1013.3
20260905231007 93 1.7 5.2 0.00 0.00 0.00 64 1013.3
20260905230506 93 1.7 6.1 0.00 0.00 0.00 64 1013.3
20260905230008 93 2.6 6.1 0.00 0.00 0.00 63 1013.3
20260905225506 94 1.7 4.3 0.00 0.00 0.00 61 1013.4
20260905225006 94 0.9 4.3 0.00 0.00 0.00 61 1013.3
20260905224506 94 0.0 3.5 0.00 0.00 0.00 61 1013.4
20260905224004 94 0.0 3.5 0.00 0.00 0.00 61 1013.4
20260905223504 95 0.9 3.5 0.00 0.00 0.00 60 1013.3
20260905223010 95 0.0 4.3 0.00 0.00 0.00 60 1013.3
20260905222503 95 0.9 4.3 0.00 0.00 0.00 60 1013.3
20260905222003 95 0.9 4.3 0.00 0.00 0.00 61 1013.2
20260905221501 95 0.9 7.0 0.00 0.00 0.00 60 1013.3
20260905221001 95 2.6 7.0 0.00 0.00 0.00 61 1013.2
20260905220559 95 0.0 4.3 0.00 0.00 0.00 60 1013.2
20260905220104 95 1.7 4.3 0.00 0.00 0.00 61 1013.2
20260905215559 94 0.0 2.6 0.00 0.00 0.00 60 1013.3
20260905215059 95 0.0 4.3 0.00 0.00 0.00 57 1013.2
20260905214558 96 0.9 2.6 0.00 0.00 0.00 57 1013.2
20260905214057 95 0.0 4.3 0.00 0.00 0.00 58 1013.1
20260905213557 95 1.7 4.3 0.00 0.00 0.00 59 1013.2
20260905213105 96 0.9 3.5 0.00 0.00 0.00 57 1013.4
20260905212555 96 1.7 3.5 0.00 0.00 0.00 59 1013.3
20260905212054 96 0.0 3.5 0.00 0.00 0.00 58 1013.4
20260905211554 95 0.0 4.3 0.00 0.00 0.00 59 1013.4
20260905211053 96 1.7 4.3 0.00 0.00 0.00 58 1013.4
20260905210553 96 0.0 1.7 0.00 0.00 0.00 57 1013.4
20260905210107 96 0.0 4.3 0.00 0.00 0.00 56 1013.5
20260905205551 97 2.6 4.3 0.00 0.00 0.00 56 1013.5
20260905205051 96 0.0 4.3 0.00 0.00 0.00 56 1013.3
20260905204551 97 1.7 5.2 0.00 0.00 0.00 55 1013.3
20260905204055 97 1.7 5.2 0.00 0.00 0.00 54 1013.4
20260905203548 97 2.6 5.2 0.00 0.00 0.00 56 1013.3
20260905203048 97 1.7 6.1 0.00 0.00 0.00 56 1013.3
20260905202545 97 0.0 6.1 0.00 0.00 0.00 55 1013.3
20260905202045 98 0.9 6.1 0.00 0.00 0.00 55 1013.5
20260905201543 97 0.9 6.1 0.00 0.00 0.00 55 1013.5
20260905201044 97 2.6 7.8 0.00 0.00 0.00 56 1013.6
20260905200541 97 3.5 7.8 0.00 0.00 0.00 56 1013.6
20260905200055 98 4.3 7.0 0.00 0.00 0.00 55 1013.7
20260905195538 99 0.9 2.6 0.00 0.00 0.00 55 1013.8
20260905195037 98 0.9 5.2 0.00 0.00 0.00 55 1013.9
20260905194537 98 0.9 6.1 0.00 0.00 0.00 55 1014.0
20260905194038 97 1.7 7.8 0.00 0.00 0.00 55 1014.0
20260905193534 97 0.9 7.8 0.00 0.00 0.00 56 1014.1
20260905193032 97 0.0 5.2 0.00 0.00 0.00 56 1014.2
20260905192531 97 1.7 5.2 0.00 0.00 0.00 57 1014.1
20260905192032 97 0.0 5.2 0.00 0.00 0.00 57 1014.2
20260905191527 97 1.7 5.2 0.00 0.00 0.00 57 1014.2
20260905191026 96 0.9 4.3 0.00 0.00 0.00 58 1014.3
20260905190525 95 1.7 5.2 0.00 0.00 0.00 60 1014.3
20260905190025 95 2.6 5.2 0.00 0.00 0.00 59 1014.4
20260905185527 95 1.7 5.2 0.00 0.00 0.00 60 1014.4
20260905185023 96 0.0 4.3 0.00 0.00 0.00 58 1014.6
20260905184530 96 0.9 5.2 0.00 0.00 0.00 61 1014.6
20260905184024 96 1.7 7.0 0.00 0.00 0.00 60 1014.6
20260905183520 96 2.6 7.8 0.00 0.00 0.00 59 1014.7
20260905183018 96 3.5 7.8 0.00 0.00 0.00 59 1014.9
20260905182517 94 1.7 7.8 0.00 0.00 0.00 62 1015.0
20260905182016 93 0.0 6.1 0.00 0.00 0.00 64 1015.2
20260905181515 94 3.5 7.0 0.00 0.00 0.00 61 1015.1
20260905181014 95 1.7 7.0 0.00 0.00 0.00 61 1015.3
20260905180517 95 1.7 5.2 0.00 0.00 0.00 61 1015.3
20260905180012 95 0.0 7.0 0.00 0.00 0.00 61 1015.4
20260905175512 94 3.5 7.8 0.00 0.00 0.00 63 1015.5
20260905175009 95 5.2 7.8 0.00 0.00 0.00 63 1015.6
20260905174507 94 1.7 6.1 0.00 0.00 0.00 65 1015.7
20260905174004 93 0.9 4.3 0.00 0.00 0.00 66 1015.7
20260905173504 92 1.7 7.0 0.00 0.00 0.00 67 1015.8
20260905173007 92 0.9 7.0 0.00 0.00 0.00 67 1015.8
20260905172502 92 0.0 6.1 0.00 0.00 0.00 66 1015.7
20260905172002 93 1.7 6.1 0.00 0.00 0.00 66 1015.9
20260905171606 93 0.0 2.6 0.00 0.00 0.00 66 1015.9
20260905171059 93 0.0 2.6 0.00 0.00 0.00 67 1015.9
20260905170600 92 0.0 6.1 0.00 0.00 0.00 66 1016.0
20260905170100 94 2.6 6.1 0.00 0.00 0.00 65 1016.1
20260905165557 94 2.6 5.2 0.00 0.00 0.00 64 1016.1
20260905165100 93 1.7 5.2 0.00 0.00 0.00 65 1016.2
20260905164553 90 0.0 3.5 0.00 0.00 0.00 70 1016.2
20260905164053 90 0.9 2.6 0.00 0.00 0.00 69 1016.4
20260905163552 91 0.0 2.6 0.00 0.00 0.00 69 1016.6
20260905163050 91 0.0 3.5 0.00 0.00 0.00 70 1016.7
20260905162549 91 0.0 6.1 0.00 0.00 0.00 71 1016.8
20260905162046 91 1.7 6.1 0.00 0.00 0.00 70 1016.9
20260905161545 90 0.0 5.2 0.00 0.00 0.00 72 1016.9
20260905161043 88 0.9 6.1 0.00 0.00 0.00 75 1017.0
20260905160544 87 3.5 6.1 0.00 0.00 0.00 74 1017.1
20260905160048 87 0.0 1.7 0.00 0.00 0.00 76 1017.1
20260905155539 86 0.0 3.5 0.00 0.00 0.00 77 1017.0
20260905155039 86 0.9 3.5 0.00 0.00 0.00 76 1017.0
20260905154551 87 0.0 2.6 0.00 0.00 0.00 76 1017.0
20260905154039 86 0.0 3.5 0.00 0.00 0.00 78 1017.0
20260905153539 86 0.0 3.5 0.00 0.00 0.00 77 1017.0
20260905153037 86 0.9 3.5 0.00 0.00 0.00 77 1017.1
20260905152537 86 0.0 2.6 0.00 0.00 0.00 77 1017.2
20260905152037 88 0.0 7.0 0.00 0.00 0.00 75 1017.4
20260905151536 88 1.7 7.0 0.00 0.00 0.00 77 1017.4
20260905151033 88 2.6 4.3 0.00 0.00 0.00 76 1017.5
20260905150531 86 0.9 3.5 0.00 0.00 0.00 79 1017.6
20260905150030 86 0.9 2.6 0.00 0.00 0.00 78 1017.6
20260905145531 86 0.0 2.6 0.00 0.00 0.00 78 1017.6
20260905145028 86 0.9 4.3 0.00 0.00 0.00 79 1017.6
20260905144537 84 0.0 1.7 0.00 0.00 0.00 82 1017.5
20260905144026 84 0.0 0.9 0.00 0.00 0.00 82 1017.5
20260905143525 84 0.0 0.9 0.00 0.00 0.00 83 1017.7
20260905143023 82 0.0 1.7 0.00 0.00 0.00 85 1017.7
20260905142521 82 0.0 2.6 0.00 0.00 0.00 86 1017.7
20260905142026 82 0.0 3.5 0.00 0.00 0.00 85 1017.8
20260905141524 82 0.0 3.5 0.00 0.00 0.00 86 1017.8
20260905141018 81 0.0 2.6 0.00 0.00 0.00 87 1017.7
20260905140518 81 0.0 2.6 0.00 0.00 0.00 87 1017.8
20260905140016 80 0.0 1.7 0.00 0.00 0.00 89 1017.7
20260905135513 79 0.0 3.5 0.00 0.00 0.00 90 1017.8
20260905135013 79 0.0 3.5 0.00 0.00 0.00 90 1017.7
20260905134511 79 1.7 3.5 0.00 0.00 0.00 91 1017.8
20260905134013 79 0.9 3.5 0.00 0.00 0.00 91 1017.7
20260905133507 78 0.0 2.6 0.00 0.00 0.00 91 1017.8
20260905133008 78 0.0 2.6 0.00 0.00 0.00 92 1017.8
20260905132505 78 0.0 2.6 0.00 0.00 0.00 92 1017.8
20260905132005 77 0.0 2.6 0.00 0.00 0.00 93 1017.8
20260905131502 77 0.0 2.6 0.00 0.00 0.00 93 1017.8
20260905131002 77 0.0 3.5 0.00 0.00 0.00 93 1017.8
20260905130602 77 0.9 3.5 0.00 0.00 0.00 94 1017.8
20260905130059 77 0.0 1.7 0.00 0.00 0.00 95 1017.8
20260905125601 77 0.0 0.9 0.00 0.00 0.00 94 1017.8
20260905125059 77 0.0 0.9 0.00 0.00 0.00 95 1017.8
20260905124556 76 0.0 0.9 0.00 0.00 0.00 95 1017.6
20260905124055 76 0.0 0.9 0.00 0.00 0.00 95 1017.6
20260905123554 76 0.0 0.9 0.00 0.00 0.00 96 1017.7
20260905123053 76 0.0 1.7 0.00 0.00 0.00 95 1017.8
20260905122552 76 0.0 1.7 0.00 0.00 0.00 96 1017.7
20260905122057 76 0.0 1.7 0.00 0.00 0.00 96 1017.6
20260905121551 76 0.0 0.9 0.00 0.00 0.00 96 1017.6
20260905121050 76 0.0 1.7 0.00 0.00 0.00 96 1017.6
20260905120555 76 0.0 1.7 0.00 0.00 0.00 96 1017.5
20260905120049 76 0.0 0.9 0.00 0.00 0.00 96 1017.5
20260905115549 76 0.0 2.6 0.00 0.00 0.00 96 1017.4
20260905115048 76 0.9 4.3 0.00 0.00 0.00 96 1017.4
20260905114604 76 1.7 4.3 0.00 0.00 0.00 96 1017.3
20260905114047 76 0.0 3.5 0.00 0.00 0.00 96 1017.3
20260905113547 76 0.9 3.5 0.00 0.00 0.00 96 1017.1
20260905113046 76 0.9 2.6 0.00 0.00 0.00 96 1017.1
20260905112545 76 0.9 3.5 0.00 0.00 0.00 96 1017.0